Вернуться в каталог

DELTA 1 DEB

АктивенSSO
NORAD 7164·DEBRIS·🇺🇸 United States

Запущен Nov 6, 1973 с Vandenberg Space Force Base

Loading…

Ближайшие Пролёты (ближайшие 24 часа)

TLE

СвежийSource: Space-Track

Эпоха: Sep 14, 2026, 07:21 UTC

1 07164U 73086EC  26257.30671390  .00000338  00000-0  17346-2 0  9990
2 07164 101.0617 285.4217 0087208  45.1997  18.0251 12.76436362450124

Отслеживайте DELTA 1 DEB в реальном времени с AllMySat

Download on the App Store